Location: Tabor
(49.4170°N, 14.6670°E)
Time: 11:18:17
(UTC+02:00)

ISS - Pass Details

Date: 21 May 2021
Orbit: 417 x 422 km, 51.6° (Epoch: 13 June)

Event Time Altitude Azimuth Distance (km) Brightness Sun altitude
Rises 23:44:52 0° 287° (WNW) 2,368 0.6 -18.3°
Reaches altitude 10° 23:46:58 10° 288° (WNW) 1,503 -0.5 -18.4°
Maximum altitude 23:50:21 78° 15° (NNE) 434 -3.7 -18.6°
Enters shadow 23:51:19 43° 94° (E) 600 -3.2 -18.7°
